User: anonymous   Login
Location: Unspecified
(0.0000°N, 0.0000°E)
Time: 20:13:59
(UTC+00:00)
Language:

OBJECT J - Orbit

View from above orbital plane
View from above orbital plane
View from above satellite
View from above satellite

Ground track
Ground track

The orbit is defined by the following mean orbital elements,

1 67001U          26145.45339172 +.00000000 +00000-0 +28569-3 0 00002
2 67001  97.6347 221.4619 0016810  75.6100 284.6992 15.06303459    08
Epoch (UTC): 25 May 2026 10:52:53
Eccentricity: 0.0016810
inclination: 97.6347°
perigee height: 536 km
apogee height: 559 km
right ascension of ascending node: 221.4619°
argument of perigee: 75.6100°
revolutions per day: 15.06303459
mean anomaly at epoch: 284.6992°

The dashed part of the orbit path shows where the satellite is in the earth's shadow,  

DLR